Regional Weather Roundup
Issued by NWS Newport/Morehead, NC

Current Version | Previous Version | Text Only | Print | Product List | Glossary On
Versions: 1 2 3 4 5 6 7 8 9 10 11 12 13 14 15 16 17 18 19 20 21 22 23 24 25 26 27 28 29 30 31 32 33 34 35 36 37 38 39 40 41 42 43 44 45 46 47 48 49 50
000 ASUS42 KMHX 230313 RWRMHX WEATHER ROUNDUP FOR EASTERN NORTH CAROLINA NATIONAL WEATHER SERVICE NEWPORT/MOREHEAD CITY NC 1100 PM EDT SUN OCT 22 2017 NOTE: "FAIR" INDICATES FEW OR NO CLOUDS BELOW 12,000 FEET WITH NO SIGNIFICANT WEATHER AND/OR OBSTRUCTIONS TO VISIBILITY NCZ015>017-031-032-045>047-102-103-230400- NORTH COAST CITY SKY/WX TMP DP RH WIND PRES REMARKS EDENTON PTCLDY 66 65 94 CALM 30.32F ELIZABETH CITY CLEAR 64 64 100 CALM 30.32S KITTY HAWK PTCLDY 68 68 100 CALM 30.30F MANTEO MOCLDY N/A N/A N/A E3 30.32S $$ NCZ045>047-081-094-103-104-230400- CENTRAL COAST CITY SKY/WX TMP DP RH WIND PRES REMARKS FRISCO MOCLDY 68 65 90 E5 30.30F $$ NCZ095-097-098-100-101-230400- SOUTHERN COAST CITY SKY/WX TMP DP RH WIND PRES REMARKS BEAUFORT MOCLDY 69 64 84 E3 30.28F CEDAR ISLAND NOT AVBL JACKSONVILLE CLEAR 69 65 86 E7 30.28S PINEY ISLAND N/A N/A N/A N/A E7 30.29S WILMINGTON PTCLDY 65 64 97 CALM 30.27S $$ NCZ011>013-027>030-043-044-078>080-089-090>093-098-230400- COASTAL PLAIN CITY SKY/WX TMP DP RH WIND PRES REMARKS AHOSKIE CLOUDY 62 61 97 CALM 30.31F CLINTON CLEAR 64 63 96 CALM 30.29S ELIZABETHTOWN NOT AVBL GOLDSBORO CLEAR 63 60 90 E5 30.27F FOG GREENVILLE PTCLDY 64 61 88 CALM 30.31S HAVELOCK CLEAR 65 64 97 CALM 30.30S KENANSVILLE PTCLDY 61 59 94 CALM 30.29F FOG KINSTON CLEAR 68 62 80 E3 30.31 NEW BERN CLEAR 67 65 93 CALM 30.31S RICHLANDS CLEAR 61 61 100 NE5 30.29S ROCKY MOUNT MOCLDY 63 62 97 CALM 30.30S WASHINGTON CLEAR 63 60 92 CALM 30.31F WHITEVILLE CLEAR 64 62 96 CALM 30.26S $$ AMZ130-135-150-152-154-156-158-170-250-252-270-ANZ085-086-088-633-658-670-230400- MARINE OBSERVATIONS STATION/POSITION TIME TEMP WIND PRES WAVE SWELL AIR SEA DIR/SP/G HT/PER HT/PER (UTC) (F) (DEG/KT/KT) (MB) (FT/S) (FT/S) CHESAPEAKE LIGHT NOT AVBL 64 E VA BEACH 0250 70 69 80/ 6/ 6 1027.2 3/ 8 2/ 8 DUCK 0236 70 70 70/ 6/ 7 1026.2 2 E DUCK 0300 70 N/A 2/ 9 OREGON INLET 0248 50/ 4/ 5 1026.2 13E OREGON INLT 0248 73 N/A 2/ 9 2/ 9 HATTERAS CG 0236 71 73 80/ 3/ 3 1025.9 DIAMOND BUOY 0250 77 81 130/ 10/ 14 1025.8 3/10 3/10 CAPE LOOKOUT 0300 75 120/ 11/ 12 1025.1 BEAUFORT LAB 0236 71 73 70/ 3/ 5 1025.7 30 SE NEW RVR IN 0208 77 120/ 12/ 14 1024.8 30 SE NEW RVR IN NOT AVBL 27 SE WRIGHTSVLE 0208 77 76 130/ 12/ 17 1024.7 5 SE WRIGHTSVLE 0208 76 74 130/ 10/ 16 1024.6 225 S CAPE HAT 0250 76 80 100/ 16/ 17 1024.7 4/ 8 3/ 8 41 SE CHARLESTON 0250 80 79 140/ 16/ 21 1022.0 6/ 7 2/ 9 $$

USA.gov is the U.S. government's official web portal to all federal, state and local government web resources and services.